Regional Weather Roundup
Issued by NWS

Home | Current Version | Previous Version | Graphics & Text | Print | Product List | Glossary On
Versions: 1 2 3 4 5 6 7 8 9 10 11 12 13 14 15 16 17 18 19 20 21 22 23 24 25 26 27 28 29 30 31 32 33 34 35 36 37 38 39 40 41 42 43 44 45 46 47 48 49 50
709
ASUS43 KFSD 312210
RWRSD

WEATHER ROUNDUP FOR SOUTH DAKOTA
NATIONAL WEATHER SERVICE SIOUX FALLS SD
500 PM CDT TUE MAY 31 2016

NOTE: "FAIR" INDICATES FEW OR NO CLOUDS BELOW 12,000 FEET WITH NO
SIGNIFICANT WEATHER AND/OR OBSTRUCTIONS TO VISIBILITY.


SDZ001>005-009-010-012>017-312300-
NORTHWEST AND NORTH CENTRAL SOUTH DAKOTA

CITY           SKY/WX    TMP DP  RH WIND       PRES   REMARKS
BUFFALO          N/A     53  47  79 NW29      29.90R
FAITH            N/A     57  43  59 W36G44    29.88R
MOBRIDGE       CLOUDY    62  48  60 W26G39    29.71S
$$

SDZ012>016-024>037-041>051-057-063-072>074-312300-
SOUTHWEST AND SOUTH CENTRAL SOUTH DAKOTA

CITY           SKY/WX    TMP DP  RH WIND       PRES   REMARKS
RAPID CTY ARPT PTSUNNY   61  40  45 NW23G32   30.00R
PIERRE         MOSUNNY   68  45  43 W28G40    29.85F
CUSTER         PTSUNNY   53  35  50 NW13G31   30.06S
ELLSWORTH AFB  CLOUDY    61  42  49 NW24G32   29.99R
PHILIP         MOSUNNY   64  44  48 NW38G48   29.93R
PINE RIDGE     SUNNY     69  35  28 NW20G36   29.99S
WINNER         FAIR      73  44  35 NW20G25   29.88S
$$

SDZ004>011-016>023-039-040-312300-
NORTHEAST SOUTH DAKOTA

CITY           SKY/WX    TMP DP  RH WIND       PRES   REMARKS
ABERDEEN       PTSUNNY   65  46  50 SW29G39   29.75F
WATERTOWN      CLOUDY    69  46  43 W18G25    29.80F
BROOKINGS      MOSUNNY   69  49  48 SW18      29.84F
SISSETON         N/A     70  43  37 W24G33    29.76F
$$

SDZ017-020-022-023-036>040-048>070-312300-
SOUTHEAST SOUTH DAKOTA

CITY           SKY/WX    TMP DP  RH WIND       PRES   REMARKS
SIOUX FALLS    MOSUNNY   71  48  43 W9G22     29.87F
HURON          MOSUNNY   72  44  36 W23G36    29.82F
CHAMBERLAIN    SUNNY     74  47  39 NW23G31   29.86S
MITCHELL       MOSUNNY   75  44  33 W22G30    29.84F
YANKTON        SUNNY     73  46  38 SW13      29.87F
$$

ABBREVIATIONS USED IN REMARKS
   TC - TEMPERATURE IN CELSIUS
  WCI - WIND CHILL INDEX
   HX - HEAT INDEX
  VSB - VISIBILITY





USA.gov is the U.S. government's official web portal to all federal, state and local government web resources and services.